This is the latest recevied weather packets stored in our database for station/object KC5TIL. If no packets are shown the sender has not sent any weather packets the latest 10 day(s).
| Time | Temp. | Humidity | Pressure | Rain* | Wind** | Luminosity | Snow |
|---|---|---|---|---|---|---|---|
| 1777836763 | 28.89° C | 33% | 1019.4 hPa | 0 mm | - | 714 W/m² | - |
| 1777836459 | 28.89° C | 32% | 1019.5 hPa | 0 mm | - | 740 W/m² | - |
| 1777836154 | 28.89° C | 32% | 1019.6 hPa | 0 mm | - | 718 W/m² | - |
| 1777835852 | 28.89° C | 34% | 1019.6 hPa | 0 mm | - | 721 W/m² | - |
| 1777835549 | 28.33° C | 34% | 1019.6 hPa | 0 mm | - | 747 W/m² | - |
| 1777835245 | 28.33° C | 34% | 1019.8 hPa | 0 mm | - | 750 W/m² | - |
| 1777834942 | 28.33° C | 33% | 1019.8 hPa | 0 mm | - | 480 W/m² | - |
| 1777834640 | 28.33° C | 34% | 1020 hPa | 0 mm | - | 724 W/m² | - |
| 1777834335 | 28.33° C | 35% | 1020.1 hPa | 0 mm | - | 730 W/m² | - |
| 1777834029 | 28.33° C | 35% | 1019.9 hPa | 0 mm | - | 730 W/m² | - |
| 1777833726 | 28.33° C | 33% | 1020.2 hPa | 0 mm | - | 735 W/m² | - |
| 1777833423 | 28.33° C | 32% | 1020.3 hPa | 0 mm | - | 718 W/m² | - |
| 1777833120 | 28.33° C | 35% | 1020.2 hPa | 0 mm | - | 714 W/m² | - |
| 1777832818 | 28.33° C | 35% | 1020.4 hPa | 0 mm | - | 730 W/m² | - |
| 1777832516 | 27.78° C | 36% | 1020.5 hPa | 0 mm | - | 734 W/m² | - |
| 1777832212 | 27.78° C | 36% | 1020.7 hPa | 0 mm | - | 735 W/m² | - |
| 1777831909 | 27.78° C | 36% | 1020.5 hPa | 0 mm | - | 743 W/m² | - |
| 1777831606 | 27.78° C | 37% | 1021 hPa | 0 mm | - | 742 W/m² | - |
| 1777831304 | 27.22° C | 38% | 1020.9 hPa | 0 mm | - | 753 W/m² | - |
| 1777831001 | 27.22° C | 41% | 1020.9 hPa | 0 mm | - | 741 W/m² | - |
| 1777830698 | 27.22° C | 39% | 1021.1 hPa | 0 mm | - | 674 W/m² | - |
| 1777830394 | 26.67° C | 40% | 1021.2 hPa | 0 mm | - | 622 W/m² | - |
| 1777830092 | 26.67° C | 39% | 1021.6 hPa | 0 mm | - | 696 W/m² | - |
| 1777829787 | 27.22° C | 38% | 1021.5 hPa | 0 mm | - | 753 W/m² | - |
| 1777829484 | 27.22° C | 40% | 1021.4 hPa | 0 mm | - | 754 W/m² | - |
* Rain latest hour (hover to see other rain measurements)
** Current wind speed in m/s (hover to see current wind gust speed)